CW3860 Weather Reports


time (UTC)temp
C
wind
direction
speed
KPH
gust
KPH
rain 1hr
cm
rain 24hr
cm
rain mn
cm
humidity
%
barometer
mb
20260508011530 17 336 1.6 3.2 0.00 0.00 0.00 83 1013.0
20260508011031 17 331 0.0 1.6 0.00 0.00 0.00 83 1013.1
20260508010530 17 330 0.0 1.6 0.00 0.00 0.00 83 1013.1
20260508010030 17 331 1.6 1.6 0.00 0.00 0.00 83 1013.1
20260508005530 17 331 1.6 3.2 0.00 0.00 0.00 83 1013.2
20260508005030 17 331 0.0 1.6 0.00 0.00 0.00 83 1013.1
20260508004531 17 330 0.0 1.6 0.00 0.00 0.00 83 1013.2
20260508004030 17 331 0.0 0.0 0.00 0.00 0.00 83 1013.3
20260508003531 17 331 0.0 1.6 0.00 0.00 0.00 83 1013.3
20260508003031 17 330 0.0 1.6 0.00 0.00 0.00 83 1013.3
20260508002530 17 330 1.6 1.6 0.00 0.00 0.00 83 1013.3
20260508002031 17 331 0.0 0.0 0.00 0.00 0.00 83 1013.3
20260508001530 17 331 0.0 1.6 0.00 0.00 0.00 83 1013.4
20260508001030 17 330 0.0 1.6 0.00 0.00 0.00 83 1013.4
20260508000531 17 330 0.0 1.6 0.00 0.00 0.00 83 1013.4
20260508000032 17 331 0.0 1.6 0.00 0.00 0.00 83 1013.4
20260507235531 17 331 1.6 1.6 0.00 0.00 0.00 83 1013.5
20260507235031 17 330 0.0 3.2 0.00 0.00 0.00 83 1013.5
20260507234531 17 331 1.6 1.6 0.00 0.00 0.00 83 1013.6
20260507234031 17 331 0.0 1.6 0.00 0.00 0.00 83 1013.7
20260507233531 17 331 0.0 1.6 0.00 0.00 0.00 83 1013.8
20260507233031 17 330 0.0 0.0 0.00 0.00 0.00 83 1013.8
20260507232534 17 331 0.0 1.6 0.00 0.00 0.00 83 1013.8
20260507232031 17 331 0.0 3.2 0.00 0.00 0.00 83 1013.8
20260507231531 17 330 0.0 3.2 0.00 0.00 0.00 83 1013.9
20260507231031 17 331 1.6 1.6 0.00 0.00 0.00 83 1013.9
20260507230531 17 331 0.0 1.6 0.00 0.00 0.00 83 1014.0
20260507230031 17 331 0.0 1.6 0.00 0.00 0.00 83 1014.0
20260507225531 17 330 0.0 3.2 0.00 0.00 0.00 83 1014.0
20260507225031 17 331 0.0 4.8 0.00 0.00 0.00 82 1014.1
20260507224531 17 321 1.6 3.2 0.00 0.00 0.00 82 1014.2
20260507224031 17 297 0.0 3.2 0.00 0.00 0.00 82 1014.2
20260507223541 17 295 1.6 3.2 0.00 0.00 0.00 82 1014.2
20260507223035 17 319 3.2 3.2 0.00 0.00 0.00 82 1014.2
20260507222531 17 312 0.0 1.6 0.00 0.00 0.00 82 1014.2
20260507222031 17 312 0.0 1.6 0.00 0.00 0.00 81 1014.2
20260507221531 17 312 0.0 1.6 0.00 0.00 0.00 82 1014.1
20260507221032 17 312 0.0 1.6 0.00 0.00 0.00 82 1014.1
20260507220534 17 312 0.0 1.6 0.00 0.00 0.00 82 1014.2
20260507220032 17 311 0.0 0.0 0.00 0.00 0.00 82 1014.1
20260507215531 17 311 0.0 0.0 0.00 0.00 0.00 83 1014.1
20260507215032 17 312 0.0 0.0 0.00 0.00 0.00 83 1014.1
20260507214532 17 312 0.0 0.0 0.00 0.00 0.00 83 1014.0
20260507214031 17 311 0.0 1.6 0.00 0.00 0.00 83 1014.0
20260507213531 17 312 0.0 1.6 0.00 0.00 0.00 83 1014.1
20260507213031 17 312 0.0 1.6 0.00 0.00 0.00 83 1014.1
20260507212531 17 325 0.0 1.6 0.00 0.00 0.00 83 1014.1
20260507212032 17 325 1.6 1.6 0.00 0.00 0.00 83 1014.0
20260507211531 17 325 0.0 3.2 0.00 0.00 0.00 83 1014.1
20260507211032 17 318 1.6 3.2 0.00 0.00 0.00 82 1014.0
20260507210531 17 317 1.6 3.2 0.00 0.00 0.00 82 1014.0
20260507210031 17 329 1.6 1.6 0.00 0.00 0.00 82 1014.0
20260507205531 18 329 0.0 1.6 0.00 0.00 0.00 82 1014.0
20260507205034 18 329 1.6 3.2 0.00 0.00 0.00 81 1014.0
20260507204535 18 319 1.6 3.2 0.00 0.00 0.00 81 1014.0
20260507204031 18 300 1.6 3.2 0.00 0.00 0.00 81 1014.0
20260507203531 18 176 0.0 1.6 0.00 0.00 0.00 81 1014.1
20260507203031 18 174 0.0 1.6 0.00 0.00 0.00 81 1014.0
20260507202531 18 173 0.0 1.6 0.00 0.00 0.00 81 1014.1
20260507202031 18 174 0.0 1.6 0.00 0.00 0.00 81 1014.1
20260507201534 18 174 1.6 3.2 0.00 0.00 0.00 81 1014.0
20260507201031 18 190 1.6 3.2 0.00 0.00 0.00 80 1014.1
20260507200531 18 210 1.6 4.8 0.00 0.00 0.00 80 1014.1
20260507200032 18 192 1.6 4.8 0.00 0.00 0.00 80 1014.1
20260507195531 18 210 0.0 3.2 0.00 0.00 0.00 80 1014.1
20260507195031 18 186 1.6 4.8 0.00 0.00 0.00 80 1014.2
20260507194531 18 194 0.0 3.2 0.00 0.00 0.00 80 1014.1
20260507194031 19 190 1.6 4.8 0.00 0.00 0.00 80 1014.1
20260507193531 19 153 1.6 4.8 0.00 0.00 0.00 80 1014.1
20260507193031 19 109 4.8 4.8 0.00 0.00 0.00 80 1014.1
20260507192531 19 147 1.6 4.8 0.00 0.00 0.00 80 1014.1
20260507192032 19 119 3.2 6.4 0.00 0.00 0.00 79 1014.1
20260507191534 19 144 1.6 4.8 0.00 0.00 0.00 79 1014.1
20260507191031 19 133 1.6 4.8 0.00 0.00 0.00 79 1013.9
20260507190534 19 109 3.2 3.2 0.00 0.00 0.00 79 1013.8
20260507190031 19 111 3.2 4.8 0.00 0.00 0.00 79 1013.8
20260507185534 19 148 1.6 4.8 0.00 0.00 0.00 79 1013.8
20260507185031 19 105 3.2 6.4 0.00 0.00 0.00 79 1013.8
20260507184532 19 121 1.6 4.8 0.00 0.00 0.00 79 1013.8
20260507184032 19 114 3.2 6.4 0.00 0.00 0.00 79 1013.8
20260507183534 19 199 3.2 9.7 0.00 0.00 0.00 79 1013.9
20260507183031 19 148 4.8 6.4 0.00 0.00 0.00 79 1013.8
20260507182531 19 111 3.2 6.4 0.00 0.00 0.00 79 1013.8
20260507182031 19 146 3.2 6.4 0.00 0.00 0.00 79 1013.8
20260507181531 19 96 4.8 8.0 0.00 0.00 0.00 79 1013.8
20260507181032 19 105 4.8 4.8 0.00 0.00 0.00 78 1013.7
20260507180531 20 142 3.2 6.4 0.00 0.00 0.00 78 1013.7
20260507180031 20 128 4.8 6.4 0.00 0.00 0.00 78 1013.7
20260507175532 20 155 3.2 6.4 0.00 0.00 0.00 77 1013.6
20260507175031 20 96 3.2 8.0 0.00 0.00 0.00 77 1013.6
20260507174531 20 96 1.6 8.0 0.00 0.00 0.00 76 1013.4
20260507174032 20 97 1.6 6.4 0.00 0.00 0.00 75 1013.3
20260507173535 20 106 3.2 4.8 0.00 0.00 0.00 74 1013.3
20260507173032 20 117 3.2 6.4 0.00 0.00 0.00 75 1013.2
20260507172531 20 112 3.2 4.8 0.00 0.00 0.00 74 1013.0
20260507172031 20 95 1.6 4.8 0.00 0.00 0.00 73 1013.0
20260507171532 20 101 1.6 3.2 0.00 0.00 0.00 71 1012.9
20260507171032 20 103 4.8 4.8 0.00 0.00 0.00 71 1013.0
20260507170535 20 98 3.2 4.8 0.00 0.00 0.00 70 1013.0
20260507170035 20 114 1.6 3.2 0.00 0.00 0.00 71 1013.1
20260507165535 20 128 0.0 4.8 0.00 0.00 0.00 70 1013.1
20260507165032 20 142 3.2 4.8 0.00 0.00 0.00 73 1013.2
20260507164532 20 102 4.8 4.8 0.00 0.00 0.00 74 1013.1
20260507164032 20 141 4.8 8.0 0.00 0.00 0.00 73 1013.1
20260507163533 20 106 1.6 4.8 0.00 0.00 0.00 75 1013.2
20260507163032 20 130 1.6 4.8 0.00 0.00 0.00 75 1013.1
20260507162532 20 149 1.6 6.4 0.00 0.00 0.00 76 1013.1
20260507162032 20 91 3.2 8.0 0.00 0.00 0.00 76 1013.2
20260507161532 20 110 4.8 8.0 0.00 0.00 0.00 76 1013.3
20260507161032 20 129 0.0 4.8 0.00 0.00 0.00 75 1013.3
20260507160532 20 132 1.6 6.4 0.00 0.00 0.00 74 1013.4
20260507160032 20 101 3.2 6.4 0.00 0.00 0.00 74 1013.3
20260507155532 20 115 1.6 4.8 0.00 0.00 0.00 73 1013.3
20260507155033 20 125 3.2 6.4 0.00 0.00 0.00 74 1013.2
20260507154535 20 107 3.2 4.8 0.00 0.00 0.00 74 1013.2
20260507154035 20 103 1.6 4.8 0.00 0.00 0.00 75 1013.2
20260507153532 20 113 3.2 4.8 0.00 0.00 0.00 75 1013.3
20260507153032 20 138 1.6 6.4 0.00 0.00 0.00 75 1013.3
20260507152532 20 123 1.6 6.4 0.00 0.00 0.00 75 1013.3
20260507152032 20 117 1.6 4.8 0.00 0.00 0.00 74 1013.3
20260507151532 20 99 3.2 6.4 0.00 0.00 0.00 73 1013.2
20260507151032 20 27 0.0 4.8 0.00 0.00 0.00 75 1013.3
20260507150535 20 153 1.6 4.8 0.00 0.00 0.00 76 1013.3
20260507150032 20 115 1.6 4.8 0.00 0.00 0.00 75 1013.3
20260507145532 20 141 4.8 6.4 0.00 0.00 0.00 75 1013.4
20260507145035 20 107 4.8 8.0 0.00 0.00 0.00 76 1013.4
20260507144532 20 126 1.6 6.4 0.00 0.00 0.00 76 1013.4
20260507144035 20 144 1.6 4.8 0.00 0.00 0.00 78 1013.4
20260507143532 20 123 3.2 6.4 0.00 0.00 0.00 78 1013.5
20260507143035 20 110 3.2 4.8 0.00 0.00 0.00 77 1013.5
20260507142532 20 338 3.2 3.2 0.00 0.00 0.00 78 1013.6
20260507142032 20 101 3.2 4.8 0.00 0.00 0.00 79 1013.5
20260507141535 20 94 3.2 4.8 0.00 0.00 0.00 78 1013.6
20260507141032 20 111 3.2 4.8 0.00 0.00 0.00 78 1013.7
20260507140532 20 65 1.6 3.2 0.00 0.00 0.00 77 1013.6
20260507140032 20 131 1.6 4.8 0.00 0.00 0.00 77 1013.6
20260507135532 20 131 0.0 6.4 0.00 0.00 0.00 77 1013.6
20260507135032 20 82 0.0 6.4 0.00 0.00 0.00 76 1013.6
20260507134532 20 111 3.2 9.7 0.00 0.00 0.00 76 1013.5
20260507134032 20 111 8.0 9.7 0.00 0.00 0.00 76 1013.5
20260507133533 21 125 1.6 6.4 0.00 0.00 0.00 75 1013.5
20260507133033 21 103 3.2 6.4 0.00 0.00 0.00 75 1013.5
20260507132535 20 92 3.2 4.8 0.00 0.00 0.00 76 1013.6
20260507132032 20 105 4.8 9.7 0.00 0.00 0.00 76 1013.5
20260507131533 20 117 4.8 11.3 0.00 0.00 0.00 75 1013.7
20260507131032 21 99 3.2 9.7 0.00 0.00 0.00 76 1013.7
20260507130532 21 99 6.4 9.7 0.00 0.00 0.00 76 1013.7
20260507130033 21 117 3.2 9.7 0.00 0.00 0.00 75 1013.7
20260507125532 21 105 6.4 8.0 0.00 0.00 0.00 74 1013.6
20260507125035 21 92 3.2 8.0 0.00 0.00 0.00 75 1013.7
20260507124532 21 98 6.4 6.4 0.00 0.00 0.00 74 1013.7
20260507124032 21 96 4.8 6.4 0.00 0.00 0.00 74 1013.8
20260507123532 21 121 4.8 11.3 0.00 0.00 0.00 73 1013.8
20260507123032 21 101 3.2 9.7 0.00 0.00 0.00 73 1013.7
20260507122532 21 99 3.2 8.0 0.00 0.00 0.00 73 1013.8
20260507122032 21 105 3.2 4.8 0.00 0.00 0.00 72 1013.7
20260507121532 21 110 4.8 8.0 0.00 0.00 0.00 71 1013.7
20260507121032 21 88 4.8 8.0 0.00 0.00 0.00 71 1013.6
20260507120532 21 90 4.8 8.0 0.00 0.00 0.00 71 1013.7
20260507120032 21 115 3.2 6.4 0.00 0.00 0.00 71 1013.6
20260507115533 21 112 4.8 8.0 0.00 0.00 0.00 70 1013.7
20260507115035 21 5 1.6 8.0 0.00 0.00 0.00 70 1013.6
20260507114532 21 109 3.2 6.4 0.00 0.00 0.00 72 1013.5
20260507114032 21 91 4.8 8.0 0.00 0.00 0.00 72 1013.5
20260507113532 21 90 3.2 6.4 0.00 0.00 0.00 71 1013.5
20260507113033 21 94 6.4 8.0 0.00 0.00 0.00 71 1013.5
20260507112532 21 98 3.2 8.0 0.00 0.00 0.00 71 1013.4
20260507112032 21 96 3.2 8.0 0.00 0.00 0.00 72 1013.4
20260507111532 21 92 3.2 8.0 0.00 0.00 0.00 73 1013.4
20260507111033 21 94 6.4 6.4 0.00 0.00 0.00 73 1013.4
20260507110533 21 55 1.6 6.4 0.00 0.00 0.00 74 1013.5
20260507110032 21 78 3.2 6.4 0.00 0.00 0.00 74 1013.6
20260507105532 21 11 3.2 8.0 0.00 0.00 0.00 74 1013.7
20260507105032 21 96 6.4 11.3 0.00 0.00 0.00 73 1013.7
20260507104532 21 10 1.6 4.8 0.00 0.00 0.00 73 1013.7
20260507104032 21 98 3.2 4.8 0.00 0.00 0.00 74 1013.8
20260507103533 21 105 3.2 9.7 0.00 0.00 0.00 74 1013.7
20260507103033 21 171 1.6 6.4 0.00 0.00 0.00 76 1013.7
20260507102532 21 105 1.6 4.8 0.00 0.00 0.00 74 1013.7
20260507102032 21 92 3.2 6.4 0.00 0.00 0.00 75 1013.7
20260507101533 21 32 0.0 4.8 0.00 0.00 0.00 74 1013.8
20260507101033 21 42 1.6 4.8 0.00 0.00 0.00 74 1013.8
20260507100533 21 355 1.6 6.4 0.00 0.00 0.00 75 1013.8
20260507100033 21 42 1.6 4.8 0.00 0.00 0.00 75 1013.8
20260507095533 21 92 3.2 9.7 0.00 0.00 0.00 75 1013.7
20260507095032 21 345 1.6 6.4 0.00 0.00 0.00 75 1013.7
20260507094533 21 0 3.2 4.8 0.00 0.00 0.00 74 1013.6
20260507094033 21 33 1.6 3.2 0.00 0.00 0.00 75 1013.7
20260507093533 21 14 1.6 4.8 0.00 0.00 0.00 75 1013.7
20260507093033 21 128 3.2 4.8 0.00 0.00 0.00 74 1013.8
20260507092532 21 29 0.0 6.4 0.00 0.00 0.00 75 1013.8
20260507092033 21 5 1.6 4.8 0.00 0.00 0.00 74 1013.8
20260507091534 21 36 1.6 6.4 0.00 0.00 0.00 74 1013.8
20260507091036 21 159 1.6 6.4 0.00 0.00 0.00 74 1013.7
20260507090533 21 192 3.2 9.7 0.00 0.00 0.00 73 1013.8
20260507090033 21 306 3.2 3.2 0.00 0.00 0.00 74 1013.9
20260507085533 21 24 1.6 9.7 0.00 0.00 0.00 73 1013.9
20260507085033 21 345 4.8 6.4 0.00 0.00 0.00 72 1013.9
20260507084533 21 165 1.6 9.7 0.00 0.00 0.00 71 1013.9
20260507084033 21 169 1.6 6.4 0.00 0.00 0.00 71 1013.8
20260507083533 21 11 6.4 6.4 0.00 0.00 0.00 69 1013.7
20260507083033 21 339 1.6 3.2 0.00 0.00 0.00 71 1013.8
20260507082533 20 351 1.6 8.0 0.00 0.00 0.00 72 1013.7
20260507082033 20 5 1.6 9.7 0.00 0.00 0.00 71 1013.7
20260507081536 20 26 0.0 9.7 0.00 0.00 0.00 73 1013.6
20260507081033 20 355 3.2 4.8 0.00 0.00 0.00 73 1013.5
20260507080533 20 25 3.2 6.4 0.00 0.00 0.00 76 1013.5
20260507080033 20 5 4.8 6.4 0.00 0.00 0.00 77 1013.5
20260507075536 20 342 0.0 3.2 0.00 0.00 0.00 77 1013.4
20260507075033 20 107 0.0 4.8 0.00 0.00 0.00 77 1013.4
20260507074533 20 355 1.6 3.2 0.00 0.00 0.00 76 1013.4
20260507074033 20 348 1.6 6.4 0.00 0.00 0.00 76 1013.4
20260507073533 20 49 1.6 4.8 0.00 0.00 0.00 75 1013.4
20260507073034 21 88 4.8 4.8 0.00 0.00 0.00 74 1013.4
20260507072533 21 112 3.2 6.4 0.00 0.00 0.00 73 1013.4
20260507072033 21 101 1.6 3.2 0.00 0.00 0.00 73 1013.4
20260507071537 21 0 0.0 4.8 0.00 0.00 0.00 74 1013.4
20260507071033 21 23 1.6 4.8 0.00 0.00 0.00 75 1013.5
20260507070534 21 55 1.6 4.8 0.00 0.00 0.00 74 1013.5
20260507070034 21 252 0.0 3.2 0.00 0.00 0.00 76 1013.4
20260507065533 20 97 3.2 3.2 0.00 0.00 0.00 78 1013.3
20260507065036 20 127 0.0 1.6 0.00 0.00 0.00 78 1013.3
20260507064533 20 95 1.6 4.8 0.00 0.00 0.00 78 1013.3
20260507064033 20 101 4.8 4.8 0.00 0.00 0.00 79 1013.2
20260507063533 19 331 0.0 1.6 0.00 0.00 0.00 79 1013.1
20260507063036 19 331 0.0 1.6 0.00 0.00 0.00 79 1013.1
20260507062533 19 330 0.0 3.2 0.00 0.00 0.00 79 1013.2
20260507062033 19 330 1.6 1.6 0.00 0.00 0.00 79 1013.1
20260507061533 19 259 0.0 0.0 0.00 0.00 0.00 79 1013.2
20260507061033 18 259 0.0 1.6 0.00 0.00 0.00 79 1013.2
20260507060533 18 260 0.0 1.6 0.00 0.00 0.00 80 1013.2
20260507060033 18 200 0.0 1.6 0.00 0.00 0.00 79 1013.2
20260507055533 18 200 0.0 3.2 0.00 0.00 0.00 80 1013.1
20260507055036 18 339 0.0 1.6 0.00 0.00 0.00 80 1013.1
20260507054536 18 338 0.0 0.0 0.00 0.00 0.00 80 1013.2
20260507054034 18 339 0.0 1.6 0.00 0.00 0.00 80 1013.1
20260507053533 18 339 0.0 1.6 0.00 0.00 0.00 80 1013.0
20260507053036 18 339 0.0 1.6 0.00 0.00 0.00 80 1012.9
20260507052534 18 338 0.0 1.6 0.00 0.00 0.00 80 1012.9
20260507052033 18 338 0.0 3.2 0.00 0.00 0.00 80 1012.9
20260507051533 18 5 3.2 4.8 0.00 0.00 0.00 81 1012.8
20260507051033 18 330 1.6 6.4 0.00 0.00 0.00 81 1012.8
20260507050533 18 338 0.0 4.8 0.00 0.00 0.00 80 1012.7
20260507050033 18 332 0.0 3.2 0.00 0.00 0.00 80 1012.6
20260507045533 18 321 0.0 4.8 0.00 0.00 0.00 80 1012.4
20260507045033 18 340 1.6 4.8 0.00 0.00 0.00 80 1012.4
20260507044536 18 310 0.0 4.8 0.00 0.00 0.00 80 1012.4
20260507044033 18 12 1.6 3.2 0.00 0.00 0.00 81 1012.3
20260507043533 18 355 1.6 4.8 0.00 0.00 0.00 81 1012.3
20260507043033 18 325 0.0 4.8 0.00 0.00 0.00 81 1012.2
20260507042533 18 332 1.6 6.4 0.00 0.00 0.00 81 1012.2
20260507042033 17 355 1.6 4.8 0.00 0.00 0.00 82 1012.1
20260507041536 17 333 3.2 4.8 0.00 0.00 0.00 82 1012.0
20260507041036 17 309 1.6 4.8 0.00 0.00 0.00 82 1011.9
20260507040533 17 329 1.6 4.8 0.00 0.00 0.00 83 1011.8
20260507040034 17 323 0.0 8.0 0.00 0.00 0.00 83 1011.8
20260507035533 17 280 8.0 9.7 0.00 0.00 0.00 84 1011.7
20260507035033 17 332 1.6 4.8 0.00 0.00 0.00 85 1011.7
20260507034533 17 161 3.2 6.4 0.00 0.00 0.00 86 1011.6
20260507034033 18 335 4.8 6.4 0.00 0.00 0.00 86 1011.6
20260507033533 18 350 1.6 4.8 0.00 0.00 0.00 86 1011.6
20260507033033 18 331 1.6 3.2 0.00 0.00 0.00 86 1011.6
20260507032534 18 347 3.2 4.8 0.00 0.00 0.00 86 1011.6
20260507032033 18 332 0.0 6.4 0.00 0.00 0.00 86 1011.4
20260507031533 18 355 3.2 4.8 0.00 0.00 0.00 86 1011.4
20260507031034 18 355 1.6 6.4 0.00 0.00 0.00 86 1011.4
20260507030534 18 5 1.6 3.2 0.00 0.00 0.00 86 1011.4
20260507030033 18 334 0.0 4.8 0.00 0.00 0.00 85 1011.4
20260507025537 18 327 0.0 4.8 0.00 0.00 0.00 85 1011.3
20260507025033 18 322 1.6 4.8 0.00 0.00 0.00 85 1011.3
20260507024533 18 348 1.6 4.8 0.00 0.00 0.00 84 1011.2
20260507024034 18 337 1.6 4.8 0.00 0.00 0.00 83 1011.1
20260507023534 18 333 1.6 4.8 0.00 0.00 0.00 83 1011.1
20260507023034 18 333 1.6 4.8 0.00 0.00 0.00 82 1011.2
20260507022537 18 346 1.6 4.8 0.00 0.00 0.00 82 1011.1
20260507022034 18 325 1.6 6.4 0.00 0.00 0.00 81 1011.1
20260507021535 18 331 1.6 4.8 0.00 0.00 0.00 79 1011.0
20260507021034 18 290 0.0 4.8 0.00 0.00 0.00 78 1010.9
20260507020531 18 335 3.2 4.8 0.00 0.00 0.00 78 1010.9
20260507020031 18 295 1.6 4.8 0.00 0.00 0.00 78 1010.9
20260507015531 18 349 1.6 4.8 0.00 0.00 0.00 77 1010.9
20260507015031 18 327 1.6 3.2 0.00 0.00 0.00 77 1010.9
20260507014531 18 340 1.6 3.2 0.00 0.00 0.00 77 1010.9
20260507014031 18 340 0.0 3.2 0.00 0.00 0.00 77 1010.9
20260507013531 18 340 1.6 3.2 0.00 0.00 0.00 77 1010.9
20260507013031 18 331 1.6 6.4 0.00 0.00 0.00 77 1010.8
20260507012531 18 346 1.6 4.8 0.00 0.00 0.00 77 1010.8
20260507012031 18 338 0.0 4.8 0.00 0.00 0.00 77 1010.8